[[{"header":{"parameterUnit":"m.s-1","parameterCategory":1,"la1":30.2991,"la2":30.254,"lo1":-89.0895,"lo2":-89.0444,"dy":0.0017,"dx":0.0017,"nx":28,"ny":28,"refTime":"2025-04-12T09:00:00:Z","depth":0,"parameterNumber":2,"parameterNumberName":"U-component_of_WINDS"},"data":[0,0,0,0,0,0,0,0,0,0,0,0,0,0,0,0,0,0,0,0,0,0,0,0,0,0,0,0,0,0,0,0,0,0,0,0,0,0,0,0,0,0,0,0,0,0,0,0,0,0,0,0,0,0,0,0,0,0,-2.092,-2.092,0,-2.0894,-2.0894,-2.0893,-2.0783,-2.078,-2.0777,-2.0775,-2.0752,-2.0754,-2.0755,0,0,0,0,0,0,0,0,0,0,0,0,0,-2.0878,-2.0879,-2.092,-2.092,-2.092,-2.0894,-2.0894,-2.0893,-2.0783,-2.078,-2.0777,-2.0774,-2.0751,-2.0753,-2.0755,0,0,0,0,0,0,0,0,0,0,0,0,0,-2.0878,-2.0879,-2.092,-2.0861,-2.0856,-2.0894,-2.0894,-2.0893,-2.0784,-2.078,-2.0776,-2.0772,-2.075,-2.0753,-2.0756,-2.085,0,0,-2.0764,-2.0765,0,0,0,0,0,0,0,0,-2.0878,-2.088,-2.087,-2.0866,-2.0859,-2.0837,-2.087,-2.0879,-2.0785,-2.0811,-2.0775,-2.077,-2.0784,-2.0783,-2.0787,-2.0849,-2.0848,-2.0764,-2.0766,-2.0767,-2.0768,0,0,0,0,0,0,0,-2.0879,-2.0881,-2.091,-2.087,-2.0864,-2.0837,-2.0833,-2.0871,-2.082,-2.0809,-2.08,-2.0799,-2.078,-2.0785,-2.0786,-2.0847,-2.0764,-2.0767,-2.0768,-2.0769,-2.0984,-2.0988,0,0,0,0,0,0,-2.0886,-2.0881,-2.0911,-2.0909,-2.0859,-2.0841,-2.0836,-2.0849,-2.0819,-2.0811,-2.0802,-2.0794,-2.0782,-2.0783,-2.0785,-2.0892,-2.0767,-2.0769,-2.0771,-2.098,-2.0985,-2.0989,0,0,0,0,0,0,-2.0886,-2.089,-2.0912,-2.0893,-2.0894,-2.0846,-2.0861,-2.085,-2.0855,-2.0814,-2.0804,-2.0816,-2.0779,-2.0781,-2.0834,-2.089,-2.0771,-2.0773,-2.0975,-2.0981,-2.0987,-2.1108,0,0,0,0,0,0,-2.0885,-2.0891,-2.0925,-2.0895,-2.0895,-2.0962,-2.0864,-2.0852,-2.0859,-2.0848,-2.0825,-2.0817,-2.0776,-2.0831,-2.0837,-2.0891,-2.0775,-2.097,-2.0978,-2.0985,-2.1099,-2.1118,-2.1134,0,0,0,0,0,-2.0884,-2.0962,-2.0928,-2.0932,-2.0938,-2.0965,-2.0965,-2.0915,-2.0864,-2.0899,-2.0872,-2.0818,-2.0882,-2.0837,-2.0843,-2.0899,-2.0966,-2.0976,-2.0984,-2.1091,-2.1114,-2.1133,0,0,0,0,0,0,-2.1002,-2.0957,-2.0919,-2.0989,-2.0981,-2.0946,-2.0989,-2.0941,-2.095,-2.0939,-2.0878,-2.0873,-2.0936,-2.0922,-2.0872,-2.0988,-2.0915,-2.0926,-2.0994,-2.1016,-2.1033,-2.1035,-2.0777,0,0,0,0,0,-2.1036,-2.1061,-2.102,-2.1086,-2.1084,-2.1038,-2.1048,-2.1009,-2.1,-2.0997,-2.0974,-2.0968,-2.0986,-2.1,-2.1015,-2.1097,-2.109,-2.1138,-2.1155,-2.117,-2.118,-2.1221,-2.1242,-2.1019,-2.1019,-2.1019,0,0,-2.1108,-2.1086,-2.1105,-2.1109,-2.1099,-2.1127,-2.1036,-2.1069,-2.109,-2.1002,-2.105,-2.1034,-2.1023,-2.109,-2.1119,-2.1081,-2.124,-2.1182,-2.1193,-2.1196,-2.1233,-2.1254,-2.1273,-2.1026,-2.1024,-2.1024,0,0,-2.1251,-2.1237,-2.1289,-2.1281,-2.1266,-2.1233,-2.1246,-2.1218,-2.1203,-2.125,-2.1185,-2.1208,-2.1242,-2.1236,-2.1238,-2.1378,-2.1328,-2.1385,-2.1475,-2.1516,-2.1534,-2.1549,-2.1598,-2.1617,-2.1395,-2.1395,-2.1395,0,-2.1342,-2.138,-2.1323,-2.136,-2.1364,-2.1284,-2.1337,-2.1331,-2.1323,-2.1328,-2.1286,-2.1325,-2.1312,-2.1377,-2.141,-2.1415,-2.1427,-2.1387,-2.1536,-2.155,-2.1564,-2.161,-2.1629,-2.1402,-2.1401,-2.1401,-2.14,0,-2.1491,-2.1519,-2.1563,-2.1555,-2.1563,-2.1609,-2.1559,-2.1575,-2.1536,-2.1509,-2.1558,-2.1539,-2.1548,-2.1561,-2.1524,-2.162,-2.1597,-2.1546,-2.1472,-2.1593,-2.1635,-2.1653,-2.1412,-2.141,-2.1407,-2.1406,0,0,-2.171,-2.1668,-2.1685,-2.168,-2.1657,-2.1678,-2.1719,-2.1726,-2.1741,-2.1738,-2.1771,-2.18,-2.1753,-2.1755,-2.1716,-2.1752,-2.1863,-2.1696,-2.1695,-2.1728,-2.1967,-2.2005,-2.2027,-2.1829,-2.1833,-2.1835,-2.1968,0,-2.1846,-2.1913,-2.1863,-2.1939,-2.1963,-2.1887,-2.1923,-2.1913,-2.1889,-2.1907,-2.188,-2.1901,-2.1837,-2.1837,-2.1869,-2.1843,-2.191,-2.1833,-2.186,-2.1862,-2.1865,-2.2049,-2.209,-2.2216,-2.1984,-2.1987,-2.1989,0,-2.2014,-2.2016,-2.2095,-2.2065,-2.2073,-2.2106,-2.2108,-2.2126,-2.2113,-2.2093,-2.2094,-2.2046,-2.2085,-2.2012,-2.2064,-2.2013,-2.2021,-2.201,-2.2013,-2.2014,-2.1933,-2.2055,-2.2255,-2.2274,-2.2015,-2.2013,-2.2011,0,-2.2165,-2.2188,-2.2237,-2.2235,-2.2202,-2.2226,-2.2214,-2.2197,-2.2204,-2.2207,-2.2211,-2.2218,-2.2223,-2.223,-2.2185,-2.2136,-2.2244,-2.2167,-2.2228,-2.2229,-2.2254,-2.2253,-2.2459,-2.226,-2.226,-2.226,-2.2259,0,-2.2323,-2.2374,-2.2304,-2.2334,-2.2389,-2.233,-2.2386,-2.2366,-2.2351,-2.2377,-2.2312,-2.2338,-2.2277,-2.2296,-2.2262,-2.231,-2.2313,-2.2298,-2.2288,-2.2303,-2.2305,-2.2308,-2.2298,-2.2265,-2.2264,-2.2263,-2.2262,0,-2.2501,-2.2456,-2.2504,-2.2468,-2.246,-2.2502,-2.2471,-2.2498,-2.2468,-2.2502,-2.2506,-2.246,-2.2479,-2.2435,-2.2449,-2.2425,-2.2495,-2.2471,-2.2499,-2.2491,-2.2555,-2.2549,-2.2769,-2.2795,-2.2581,-2.2583,-2.2585,0,-2.2604,-2.2641,-2.2608,-2.2619,-2.261,-2.263,-2.2636,-2.258,-2.2589,-2.2576,-2.2605,-2.2619,-2.2626,-2.2661,-2.263,-2.264,-2.2615,-2.2692,-2.2617,-2.2631,-2.2616,-2.2614,-2.2617,-2.2707,-2.271,-2.2712,-2.2714,0,-2.2792,-2.2767,-2.2778,-2.2781,-2.279,-2.279,-2.2786,-2.28,-2.274,-2.2754,-2.2772,-2.2778,-2.279,-2.2805,-2.2807,-2.2795,-2.2745,-2.2738,-2.2752,-2.2768,-2.2782,-2.2775,-2.254,-2.2733,-2.2731,-2.273,-2.2729,-2.2728,-2.2935,-2.2963,-2.2944,-2.2958,-2.2948,-2.2946,-2.2968,-2.2941,-2.2954,-2.2959,-2.2925,-2.2951,-2.2936,-2.2934,-2.2927,-2.2946,-2.2912,-2.2933,-2.2938,-2.2944,-2.2954,-2.278,-2.2947,-2.2946,-2.2945,-2.2945,-2.2944,0,-2.3119,-2.3102,-2.3115,-2.311,-2.3121,-2.3071,-2.3063,-2.3076,-2.3099,-2.3089,-2.3097,-2.3117,-2.3131,-2.31,-2.3108,-2.313,-2.3107,-2.3134,-2.3132,-2.3129,-2.2985,-2.2971,-2.3152,-2.3152,-2.3152,-2.3152,-2.3152,-2.3152,-2.3215,-2.3261,-2.3234,-2.3274,-2.3257,-2.3279,-2.3279,-2.3276,-2.3268,-2.3293,-2.3303,-2.3282,-2.3263,-2.327,-2.328,-2.327,-2.3276,-2.3311,-2.3294,-2.316,-2.314,-2.312,-2.3107,-2.3313,-2.3313,-2.3436,-2.3437,-2.3438]},{"header":{"parameterUnit":"m.s-1","parameterCategory":1,"la1":30.2991,"la2":30.254,"lo1":-89.0895,"lo2":-89.0444,"dy":0.0017,"dx":0.0017,"nx":28,"ny":28,"refTime":"2025-04-12T09:00:00:Z","depth":0,"parameterNumber":3,"parameterNumberName":"V-component_of_WINDS"},"data":[0,0,0,0,0,0,0,0,0,0,0,0,0,0,0,0,0,0,0,0,0,0,0,0,0,0,0,0,0,0,0,0,0,0,0,0,0,0,0,0,0,0,0,0,0,0,0,0,0,0,0,0,0,0,0,0,0,0,-2.7248,-2.7249,0,-2.7352,-2.7354,-2.7355,-2.7332,-2.733,-2.7328,-2.7326,-2.7429,-2.7433,-2.7438,0,0,0,0,0,0,0,0,0,0,0,0,0,-2.7025,-2.7029,-2.7248,-2.7249,-2.7251,-2.7352,-2.7354,-2.7355,-2.7332,-2.733,-2.7328,-2.7325,-2.7427,-2.7433,-2.7438,0,0,0,0,0,0,0,0,0,0,0,0,0,-2.7125,-2.703,-2.7248,-2.7252,-2.7253,-2.7352,-2.7354,-2.7355,-2.7333,-2.733,-2.7327,-2.7324,-2.7426,-2.7432,-2.7439,-2.7539,0,0,-2.746,-2.7463,0,0,0,0,0,0,0,0,-2.7119,-2.7133,-2.725,-2.7252,-2.7253,-2.7326,-2.7312,-2.7417,-2.7334,-2.7302,-2.7326,-2.7323,-2.7397,-2.7406,-2.7432,-2.7544,-2.7548,-2.746,-2.7464,-2.7467,-2.7469,0,0,0,0,0,0,0,-2.7112,-2.7128,-2.7289,-2.7251,-2.7254,-2.7247,-2.7258,-2.7332,-2.7364,-2.7305,-2.7304,-2.7316,-2.7397,-2.7425,-2.7434,-2.755,-2.746,-2.7466,-2.747,-2.7473,-2.7749,-2.7752,0,0,0,0,0,0,-2.7104,-2.7123,-2.7286,-2.7292,-2.7178,-2.7253,-2.7265,-2.7306,-2.7364,-2.737,-2.7319,-2.7315,-2.7415,-2.7426,-2.7437,-2.7558,-2.7467,-2.7474,-2.7478,-2.7746,-2.775,-2.7753,0,0,0,0,0,0,-2.7099,-2.7119,-2.7282,-2.7207,-2.7227,-2.726,-2.7306,-2.7309,-2.7337,-2.7374,-2.7379,-2.7342,-2.7413,-2.7428,-2.7514,-2.7562,-2.7477,-2.7483,-2.7742,-2.7747,-2.7751,-2.7801,0,0,0,0,0,0,-2.7093,-2.7117,-2.7157,-2.7208,-2.7231,-2.7358,-2.7309,-2.7313,-2.735,-2.7346,-2.7397,-2.7403,-2.7412,-2.7504,-2.7521,-2.7569,-2.7488,-2.7738,-2.7744,-2.775,-2.7796,-2.7807,-2.7817,0,0,0,0,0,-2.7085,-2.7166,-2.7159,-2.7179,-2.7282,-2.7361,-2.7374,-2.7384,-2.7354,-2.7393,-2.7416,-2.7401,-2.7554,-2.7513,-2.7532,-2.7583,-2.7735,-2.7742,-2.7749,-2.7791,-2.7805,-2.7817,0,0,0,0,0,0,-2.7117,-2.7173,-2.7166,-2.7265,-2.7309,-2.7357,-2.7407,-2.7399,-2.7451,-2.7445,-2.7454,-2.7465,-2.7554,-2.7577,-2.7531,-2.7683,-2.764,-2.7651,-2.7665,-2.7679,-2.7689,-2.7682,-2.7494,0,0,0,0,0,-2.7136,-2.7198,-2.7242,-2.7326,-2.7348,-2.7374,-2.7409,-2.7413,-2.7458,-2.7475,-2.7505,-2.7548,-2.7606,-2.7643,-2.7698,-2.7799,-2.7809,-2.7843,-2.7854,-2.7863,-2.7872,-2.7927,-2.7943,-2.7777,-2.7777,-2.7777,0,0,-2.7176,-2.7213,-2.7251,-2.7333,-2.7367,-2.7429,-2.7389,-2.7456,-2.7502,-2.7485,-2.7569,-2.7593,-2.7641,-2.7735,-2.7778,-2.7757,-2.7921,-2.7872,-2.7879,-2.7884,-2.7936,-2.7952,-2.7966,-2.7782,-2.7781,-2.7781,0,0,-2.7279,-2.7314,-2.7388,-2.7423,-2.7476,-2.7493,-2.751,-2.756,-2.7576,-2.766,-2.7649,-2.7702,-2.7802,-2.7837,-2.7867,-2.7984,-2.7972,-2.8002,-2.8058,-2.8112,-2.8125,-2.8136,-2.8178,-2.8193,-2.8011,-2.8011,-2.8011,0,-2.7321,-2.7415,-2.7426,-2.7495,-2.7531,-2.752,-2.7594,-2.7627,-2.7695,-2.7719,-2.7695,-2.782,-2.7851,-2.7953,-2.7982,-2.8007,-2.8027,-2.7996,-2.8122,-2.8134,-2.8145,-2.8184,-2.82,-2.8015,-2.8014,-2.8014,-2.8014,0,-2.7464,-2.7529,-2.7582,-2.765,-2.7692,-2.7763,-2.7783,-2.7824,-2.7824,-2.7843,-2.7929,-2.7967,-2.8029,-2.8054,-2.8054,-2.8156,-2.8142,-2.812,-2.8077,-2.8164,-2.8201,-2.8216,-2.8019,-2.8018,-2.8017,-2.8016,0,0,-2.759,-2.7663,-2.7682,-2.7713,-2.7771,-2.7821,-2.7891,-2.7954,-2.7988,-2.8035,-2.8093,-2.8178,-2.8158,-2.8193,-2.8197,-2.8244,-2.8334,-2.8217,-2.8218,-2.8237,-2.8448,-2.8464,-2.8482,-2.8327,-2.8329,-2.8332,-2.8444,0,-2.7699,-2.7824,-2.7836,-2.7948,-2.8008,-2.7999,-2.8059,-2.8101,-2.812,-2.8173,-2.8194,-2.8254,-2.8224,-2.8245,-2.829,-2.8314,-2.8377,-2.8306,-2.838,-2.8382,-2.8368,-2.8501,-2.8518,-2.8622,-2.8459,-2.8461,-2.8463,0,-2.7842,-2.7895,-2.8013,-2.8063,-2.8089,-2.8143,-2.8202,-2.8253,-2.8299,-2.831,-2.8349,-2.8348,-2.8418,-2.8373,-2.847,-2.8421,-2.8452,-2.8468,-2.8472,-2.8479,-2.8428,-2.8512,-2.8656,-2.8671,-2.8486,-2.8484,-2.8483,0,-2.7922,-2.8023,-2.8107,-2.8133,-2.8193,-2.8232,-2.8258,-2.8301,-2.8338,-2.8389,-2.8413,-2.847,-2.8502,-2.8546,-2.8559,-2.8525,-2.8656,-2.8611,-2.8666,-2.8666,-2.8694,-2.8692,-2.8845,-2.8714,-2.8714,-2.8713,-2.8713,0,-2.8042,-2.8115,-2.8144,-2.8195,-2.8276,-2.8288,-2.8368,-2.8392,-2.8431,-2.8486,-2.848,-2.8532,-2.8546,-2.86,-2.8611,-2.8689,-2.8703,-2.8713,-2.8715,-2.8714,-2.8713,-2.8734,-2.8727,-2.8717,-2.8717,-2.8716,-2.8715,0,-2.8145,-2.8167,-2.8258,-2.8308,-2.8322,-2.838,-2.8421,-2.847,-2.8489,-2.8559,-2.8576,-2.8605,-2.8668,-2.8686,-2.8761,-2.8768,-2.886,-2.8856,-2.8845,-2.8845,-2.8899,-2.8894,-2.9071,-2.9095,-2.8949,-2.895,-2.8951,0,-2.822,-2.8276,-2.8332,-2.837,-2.8398,-2.8458,-2.8497,-2.8511,-2.855,-2.8607,-2.8649,-2.8712,-2.8763,-2.8864,-2.8891,-2.8948,-2.8944,-2.9003,-2.8953,-2.895,-2.8945,-2.8942,-2.8947,-2.9012,-2.9013,-2.9015,-2.9016,0,-2.8351,-2.8359,-2.8415,-2.8476,-2.8522,-2.857,-2.8615,-2.8646,-2.8666,-2.8711,-2.8776,-2.8816,-2.8893,-2.8955,-2.9013,-2.9039,-2.9031,-2.9031,-2.9047,-2.9046,-2.9038,-2.9043,-2.8871,-2.9027,-2.9026,-2.9025,-2.9024,-2.9024,-2.8442,-2.8491,-2.8539,-2.8602,-2.8638,-2.8681,-2.873,-2.8755,-2.881,-2.8876,-2.888,-2.8951,-2.8995,-2.9073,-2.9102,-2.9156,-2.9139,-2.9161,-2.9167,-2.9173,-2.9177,-2.9029,-2.9167,-2.9166,-2.9166,-2.9166,-2.9166,0,-2.8572,-2.8603,-2.866,-2.8725,-2.8775,-2.8764,-2.8814,-2.8855,-2.8918,-2.8961,-2.9012,-2.9087,-2.9147,-2.9179,-2.9238,-2.9276,-2.9274,-2.9291,-2.9288,-2.9294,-2.9189,-2.917,-2.9292,-2.9292,-2.9292,-2.9292,-2.9292,-2.9292,-2.8646,-2.8729,-2.8743,-2.8844,-2.8873,-2.8944,-2.8974,-2.9013,-2.9047,-2.9132,-2.9182,-2.9203,-2.9241,-2.9304,-2.9358,-2.9366,-2.9388,-2.9408,-2.9413,-2.9314,-2.9302,-2.9289,-2.9271,-2.9412,-2.9412,-2.9513,-2.9514,-2.9515]}]]